View from above orbital plane
|
View from above satellite
|
Ground track
|
The orbit data is extracted from the following two-line orbital elements,
1 36105U 09066B 21060.21821854 0.00000800 00000-0 42086-4 0 01
2 36105 97.2650 56.5683 0021713 294.6581 65.3417 15.15492269 08
Epoch (UTC): | 01 March 2021 05:14:14 |
Eccentricity: | 0.0021713 |
inclination: | 97.2650° |
perigee height: | 504 km |
apogee height: | 534 km |
right ascension of ascending node: | 56.5683° |
argument of perigee: | 294.6581° |
revolutions per day: | 15.15492269 |
mean anomaly at epoch: | 65.3417° |
orbit number at epoch: | 0 |
The dashed part of the orbit path shows where the satellite is in the earth's shadow,
|
|